STARLINK-2470 (48334 NORAD) Tracking and Keplerian Element Data

This shows tracking and keplerian element data for the satellite.

Feedback or suggestion? Click here.




ElementValue
Catalog48334
NameSTARLINK-2470
Epoch Orbit1424
Epoch Day210.84853858
Epoch Year2021
RAAN100.641
Inclination53.0627
Eccentricity0.0001803
Argument of Perigee91.3646
Mean Anonmoly268.7549
Mean Motion15.06403426
Decay Rate8.92E-06
L11 48334U 21036BL 21210.84853858 .00000892 00000-0 78759-4 0 9998
L22 48334 53.0627 100.6410 0001803 91.3646 268.7549 15.06403426 14243

Live tracking and technical data element details for STARLINK-2470 (NORAD 48334). STARLINK-2470 can be tracked NOW for your location showing map with azimuth and elevation plus other details from your city location.

Track the satellite on the map from your city or location and see movement details for azimuth, elevation, latitude, longitude, range, height, and movement on the map or in text.







IsCatalogInMostPopularTable: catalog: 48334, numindb: 32
Update: records affected: 1



GetName: 48334 STARLINK-2470

Hit Count: updated at: Sat, 31 Jul 2021 15:45:23 GMT